When you browse on this site, cookies collect data to enhance your experience and personalize the content and advertising you see.
Visit our Privacy Policy to learn more. By continuing to use the site, you agree to this use of cookies and data.
  • în România
  • Lista ţărilor
  • Pe 7 zile
  • Temperatura apei
  • Hartă satelitară
  • Meteo pe hartă
  • Widget-uri
  • user-avatar
    Intrare

    Meteo pe oră la Achenheim

    Astăzi, 23 Aprilie, Marţi

    Timp Temperatura Precipitaţii Vânt Presiune Umiditate
    00:00 +14°C° 0 mm 3 m/s 734 mmHg 65%
    01:00 +14°C° 0 mm 3 m/s 734 mmHg 66%
    02:00 +14°C° 0 mm 2 m/s 734 mmHg 70%
    03:00 +13°C° 0 mm 2 m/s 733 mmHg 73%
    04:00 +12°C° 0 mm 2 m/s 733 mmHg 77%
    05:00 +13°C° 0 mm 2 m/s 733 mmHg 77%
    06:00 +13°C° 0 mm 1 m/s 733 mmHg 78%
    07:00 +13°C° 0 mm 1 m/s 733 mmHg 78%
    08:00 +15°C° 0 mm 1 m/s 733 mmHg 72%
    09:00 +18°C° 0 mm 1 m/s 733 mmHg 66%
    10:00 +20°C° 0 mm 1 m/s 733 mmHg 60%
    11:00 +21°C° 0 mm 1 m/s 732 mmHg 56%
    12:00 +22°C° 0 mm 1 m/s 732 mmHg 53%
    13:00 +24°C° 0 mm 1 m/s 732 mmHg 50%
    14:00 +23°C° 0.2 mm 1 m/s 732 mmHg 53%
    15:00 +23°C° 0.2 mm 2 m/s 732 mmHg 56%
    16:00 +23°C° 0.2 mm 2 m/s 732 mmHg 60%
    17:00 +22°C° 0 mm 1 m/s 732 mmHg 65%
    18:00 +20°C° 0 mm 1 m/s 732 mmHg 70%
    19:00 +17°C° 0 mm 0 m/s 732 mmHg 76%
    20:00 +16°C° 0.1 mm 0 m/s 732 mmHg 78%
    21:00 +18°C° 0.1 mm 1 m/s 733 mmHg 80%
    22:00 +16°C° 0.1 mm 1 m/s 733 mmHg 83%
    23:00 +15°C° 0 mm 1 m/s 733 mmHg 84%

    Mâine, 24 Aprilie, Miercuri

    Timp Temperatura Precipitaţii Vânt Presiune Umiditate
    00:00 +15°C° 0 mm 1 m/s 734 mmHg 85%
    01:00 +14°C° 0 mm 1 m/s 734 mmHg 86%
    02:00 +14°C° 0 mm 1 m/s 735 mmHg 85%
    03:00 +14°C° 0 mm 1 m/s 735 mmHg 85%
    04:00 +14°C° 0 mm 1 m/s 735 mmHg 84%
    05:00 +15°C° 0.1 mm 1 m/s 736 mmHg 83%
    06:00 +15°C° 0.1 mm 1 m/s 736 mmHg 82%
    07:00 +14°C° 0.1 mm 0 m/s 736 mmHg 81%
    08:00 +18°C° 0 mm 1 m/s 737 mmHg 74%
    09:00 +20°C° 0 mm 1 m/s 737 mmHg 67%
    10:00 +20°C° 0 mm 2 m/s 737 mmHg 60%
    11:00 +21°C° 0 mm 3 m/s 737 mmHg 58%
    12:00 +22°C° 0 mm 3 m/s 737 mmHg 56%
    13:00 +23°C° 0 mm 4 m/s 737 mmHg 54%
    14:00 +22°C° 0.7 mm 5 m/s 736 mmHg 60%
    15:00 +21°C° 0.7 mm 6 m/s 736 mmHg 65%
    16:00 +20°C° 0.7 mm 7 m/s 736 mmHg 70%
    17:00 +16°C° 1.2 mm 6 m/s 737 mmHg 74%
    18:00 +14°C° 1.2 mm 4 m/s 738 mmHg 78%
    19:00 +12°C° 1.2 mm 3 m/s 738 mmHg 82%
    20:00 +12°C° 0.5 mm 3 m/s 739 mmHg 83%
    21:00 +12°C° 0.5 mm 2 m/s 740 mmHg 83%
    22:00 +10°C° 0.5 mm 2 m/s 741 mmHg 84%
    23:00 +10°C° 0 mm 2 m/s 741 mmHg 84%

    Poimâine, 25 Aprilie, Joi

    Timp Temperatura Precipitaţii Vânt Presiune Umiditate
    00:00 +11°C° 0 mm 1 m/s 741 mmHg 84%
    01:00 +10°C° 0 mm 1 m/s 741 mmHg 84%
    02:00 +10°C° 0 mm 1 m/s 741 mmHg 84%
    03:00 +10°C° 0 mm 1 m/s 741 mmHg 84%
    04:00 +10°C° 0 mm 1 m/s 741 mmHg 84%
    05:00 +10°C° 0 mm 1 m/s 741 mmHg 83%
    06:00 +11°C° 0 mm 1 m/s 741 mmHg 83%
    07:00 +12°C° 0 mm 1 m/s 741 mmHg 82%
    08:00 +14°C° 0 mm 1 m/s 742 mmHg 75%
    09:00 +16°C° 0 mm 1 m/s 742 mmHg 69%
    10:00 +19°C° 0 mm 1 m/s 742 mmHg 62%
    11:00 +20°C° 0 mm 1 m/s 742 mmHg 58%
    12:00 +20°C° 0 mm 2 m/s 741 mmHg 54%
    13:00 +21°C° 0 mm 3 m/s 741 mmHg 50%
    14:00 +22°C° 0 mm 3 m/s 741 mmHg 50%
    15:00 +22°C° 0 mm 3 m/s 740 mmHg 51%
    16:00 +22°C° 0 mm 3 m/s 739 mmHg 52%
    17:00 +21°C° 0.4 mm 4 m/s 740 mmHg 59%
    18:00 +19°C° 0.4 mm 4 m/s 740 mmHg 65%
    19:00 +18°C° 0.4 mm 4 m/s 740 mmHg 72%
    20:00 +15°C° 0.1 mm 4 m/s 741 mmHg 77%
    21:00 +13°C° 0.1 mm 3 m/s 742 mmHg 82%
    22:00 +11°C° 0.1 mm 3 m/s 742 mmHg 87%
    23:00 +11°C° 0 mm 3 m/s 743 mmHg 87%

    26 Aprilie, Vineri

    Timp Temperatura Precipitaţii Vânt Presiune Umiditate
    00:00 +10°C° 0 mm 2 m/s 743 mmHg 86%
    01:00 +10°C° 0 mm 1 m/s 743 mmHg 85%
    02:00 +9°C° 0.1 mm 2 m/s 744 mmHg 85%
    03:00 +9°C° 0.1 mm 2 m/s 744 mmHg 86%
    04:00 +9°C° 0.1 mm 2 m/s 745 mmHg 87%
    05:00 +9°C° 0.7 mm 2 m/s 745 mmHg 88%
    06:00 +9°C° 0.7 mm 1 m/s 746 mmHg 89%
    07:00 +9°C° 0.7 mm 1 m/s 746 mmHg 90%
    08:00 +9°C° 0.2 mm 2 m/s 747 mmHg 86%
    09:00 +10°C° 0.2 mm 2 m/s 747 mmHg 82%
    10:00 +11°C° 0.2 mm 3 m/s 747 mmHg 79%
    11:00 +11°C° 0 mm 3 m/s 747 mmHg 73%
    12:00 +12°C° 0 mm 4 m/s 748 mmHg 67%
    13:00 +13°C° 0 mm 4 m/s 748 mmHg 61%
    14:00 +13°C° 0 mm 4 m/s 748 mmHg 60%
    15:00 +14°C° 0 mm 5 m/s 748 mmHg 59%
    16:00 +14°C° 0 mm 5 m/s 747 mmHg 58%
    17:00 +13°C° 0 mm 4 m/s 747 mmHg 63%
    18:00 +13°C° 0 mm 4 m/s 747 mmHg 68%
    19:00 +12°C° 0 mm 3 m/s 747 mmHg 73%
    20:00 +11°C° 0 mm 3 m/s 748 mmHg 77%
    21:00 +10°C° 0 mm 3 m/s 748 mmHg 81%
    22:00 +9°C° 0 mm 3 m/s 749 mmHg 85%
    23:00 +9°C° 0 mm 3 m/s 749 mmHg 87%

    27 Aprilie, Sâmbătă

    Timp Temperatura Precipitaţii Vânt Presiune Umiditate
    00:00 +9°C° 0 mm 3 m/s 749 mmHg 88%
    01:00 +8°C° 0 mm 3 m/s 749 mmHg 89%
    02:00 +9°C° 0.5 mm 3 m/s 749 mmHg 90%
    03:00 +8°C° 0.5 mm 4 m/s 749 mmHg 91%
    04:00 +8°C° 0.5 mm 4 m/s 750 mmHg 91%
    05:00 +8°C° 0.2 mm 4 m/s 750 mmHg 90%
    06:00 +8°C° 0.2 mm 4 m/s 751 mmHg 88%
    07:00 +8°C° 0.2 mm 5 m/s 751 mmHg 87%
    08:00 +9°C° 0.1 mm 5 m/s 752 mmHg 82%
    09:00 +10°C° 0.1 mm 5 m/s 752 mmHg 76%
    10:00 +11°C° 0.1 mm 6 m/s 753 mmHg 71%
    11:00 +12°C° 0.1 mm 5 m/s 753 mmHg 67%
    12:00 +13°C° 0.1 mm 5 m/s 753 mmHg 62%
    13:00 +14°C° 0.1 mm 5 m/s 754 mmHg 58%
    14:00 +14°C° 0.1 mm 5 m/s 754 mmHg 58%
    15:00 +14°C° 0.1 mm 5 m/s 754 mmHg 58%
    16:00 +14°C° 0.1 mm 5 m/s 754 mmHg 59%
    17:00 +13°C° 0 mm 4 m/s 754 mmHg 63%
    18:00 +12°C° 0 mm 3 m/s 754 mmHg 67%
    19:00 +12°C° 0 mm 2 m/s 755 mmHg 72%
    20:00 +10°C° 0 mm 2 m/s 755 mmHg 75%
    21:00 +9°C° 0 mm 2 m/s 756 mmHg 79%
    22:00 +9°C° 0 mm 2 m/s 756 mmHg 82%
    23:00 +8°C° 0 mm 2 m/s 756 mmHg 83%

    28 Aprilie, Duminică

    Timp Temperatura Precipitaţii Vânt Presiune Umiditate
    00:00 +8°C° 0 mm 2 m/s 756 mmHg 83%
    01:00 +8°C° 0 mm 2 m/s 756 mmHg 84%
    02:00 +8°C° 0.1 mm 2 m/s 755 mmHg 84%
    03:00 +8°C° 0.1 mm 2 m/s 755 mmHg 84%
    04:00 +8°C° 0.1 mm 2 m/s 755 mmHg 84%
    05:00 +9°C° 0.1 mm 3 m/s 755 mmHg 84%
    06:00 +9°C° 0.1 mm 3 m/s 755 mmHg 84%
    07:00 +9°C° 0.1 mm 3 m/s 755 mmHg 84%
    08:00 +10°C° 0.1 mm 3 m/s 755 mmHg 83%
    09:00 +11°C° 0.1 mm 3 m/s 754 mmHg 81%
    10:00 +12°C° 0.1 mm 3 m/s 754 mmHg 79%
    11:00 +13°C° 0.1 mm 3 m/s 754 mmHg 74%
    12:00 +14°C° 0.1 mm 4 m/s 754 mmHg 69%
    13:00 +15°C° 0.1 mm 4 m/s 753 mmHg 64%
    14:00 +15°C° 0.1 mm 4 m/s 753 mmHg 63%
    15:00 +17°C° 0.1 mm 4 m/s 753 mmHg 62%
    16:00 +17°C° 0.1 mm 4 m/s 752 mmHg 60%
    17:00 +15°C° 0 mm 4 m/s 752 mmHg 65%
    18:00 +14°C° 0 mm 3 m/s 752 mmHg 70%
    19:00 +13°C° 0 mm 3 m/s 752 mmHg 74%
    20:00 +13°C° 0.1 mm 2 m/s 752 mmHg 78%
    21:00 +12°C° 0.1 mm 2 m/s 752 mmHg 83%
    22:00 +12°C° 0.1 mm 2 m/s 752 mmHg 87%
    23:00 +10°C° 0 mm 2 m/s 751 mmHg 88%
    Arată mai mult